GW7068 Weather Reports


time (UTC)temp
F
wind
direction
speed
knots
gust
knots
rain 1hr
in
rain 24hr
in
rain mn
in
humidity
%
barometer
mb
20260507150054 59 40 1.7 3.5 0.00 0.00 0.00 89 1016.5
20260507145555 59 6 0.9 1.7 0.00 0.00 0.00 90 1016.5
20260507145055 59 11 2.6 3.5 0.00 0.00 0.00 90 1016.5
20260507144554 58 357 2.6 2.6 0.00 0.00 0.00 90 1016.5
20260507144055 58 12 1.7 2.6 0.00 0.00 0.00 90 1016.5
20260507143555 58 52 2.6 3.5 0.00 0.00 0.00 91 1016.4
20260507143055 58 69 1.7 2.6 0.00 0.00 0.00 91 1016.4
20260507142554 58 34 1.7 3.5 0.00 0.00 0.00 91 1016.4
20260507142054 57 8 1.7 2.6 0.00 0.00 0.00 91 1016.4
20260507141555 57 9 1.7 1.7 0.00 0.00 0.00 91 1016.3
20260507141055 57 0 1.7 3.5 0.00 0.00 0.00 91 1016.2
20260507140554 57 48 1.7 1.7 0.00 0.00 0.00 92 1016.2
20260507140058 56 4 0.9 1.7 0.00 0.00 0.00 92 1016.0
20260507135554 56 48 1.7 2.6 0.00 0.00 0.00 92 1016.0
20260507135054 56 62 0.9 1.7 0.00 0.00 0.00 92 1015.9
20260507134556 56 45 2.6 3.5 0.00 0.00 0.00 92 1016.0
20260507134055 56 33 1.7 1.7 0.00 0.00 0.00 92 1015.9
20260507133555 56 70 0.9 1.7 0.00 0.00 0.00 92 1015.9
20260507133054 56 38 1.7 2.6 0.00 0.00 0.00 93 1016.0
20260507132555 55 43 1.7 1.7 0.00 0.00 0.00 94 1015.9
20260507132055 55 35 0.9 1.7 0.00 0.00 0.00 95 1015.9
20260507131555 55 21 0.9 1.7 0.00 0.00 0.00 95 1015.9
20260507131054 55 37 0.9 1.7 0.00 0.00 0.00 95 1015.9
20260507130559 55 30 0.9 1.7 0.00 0.00 0.00 95 1015.8
20260507130055 55 20 0.9 1.7 0.00 0.00 0.00 95 1015.8
20260507125554 55 35 0.9 1.7 0.00 0.00 0.00 95 1015.7
20260507125057 55 34 0.9 1.7 0.00 0.00 0.00 95 1015.7
20260507124554 55 33 0.9 1.7 0.00 0.00 0.00 95 1015.6
20260507124055 55 25 1.7 1.7 0.00 0.00 0.00 95 1015.6
20260507123554 55 27 0.9 1.7 0.00 0.00 0.00 94 1015.5
20260507123057 55 35 1.7 2.6 0.00 0.00 0.00 95 1015.6
20260507122555 55 16 1.7 1.7 0.00 0.00 0.00 94 1015.5
20260507122054 55 36 1.7 1.7 0.00 0.00 0.00 94 1015.5
20260507121554 56 0 0.0 0.0 0.00 0.00 0.00 94 1015.5
20260507121056 56 40 1.7 1.7 0.00 0.00 0.00 94 1015.5
20260507120556 56 30 1.7 1.7 0.00 0.00 0.00 95 1015.6
20260507120055 56 13 0.0 0.9 0.00 0.00 0.00 95 1015.6
20260507115555 56 77 0.0 0.9 0.00 0.00 0.00 94 1015.5
20260507115054 56 58 0.0 0.9 0.00 0.00 0.00 94 1015.5
20260507114555 55 37 0.9 1.7 0.00 0.00 0.00 94 1015.6
20260507114055 55 54 0.9 1.7 0.00 0.00 0.00 94 1015.5
20260507113555 55 61 0.0 0.9 0.00 0.00 0.00 94 1015.4
20260507113055 56 48 0.0 1.7 0.00 0.00 0.00 93 1015.5
20260507112555 56 60 0.0 0.0 0.00 0.00 0.00 93 1015.6
20260507112054 55 51 0.9 1.7 0.00 0.00 0.00 94 1015.6
20260507111554 56 41 0.0 0.9 0.00 0.00 0.00 93 1015.6
20260507111054 56 37 0.9 1.7 0.00 0.00 0.00 93 1015.6
20260507110555 56 31 0.9 1.7 0.00 0.00 0.00 93 1015.6
20260507110054 56 25 0.0 0.9 0.00 0.00 0.00 93 1015.7
20260507105554 56 31 0.9 1.7 0.00 0.00 0.00 93 1015.6
20260507105054 56 29 0.9 1.7 0.00 0.00 0.00 93 1015.6
20260507104555 56 46 0.9 1.7 0.00 0.00 0.00 93 1015.7
20260507104054 56 60 1.7 1.7 0.00 0.00 0.00 93 1015.8
20260507103554 56 63 0.9 1.7 0.00 0.00 0.00 93 1015.8
20260507103054 56 55 1.7 1.7 0.00 0.00 0.00 93 1015.8
20260507102554 56 60 1.7 1.7 0.00 0.00 0.00 93 1015.8
20260507102054 56 62 0.9 1.7 0.00 0.00 0.00 93 1015.8
20260507101554 56 56 0.9 1.7 0.00 0.00 0.00 92 1015.9
20260507101054 56 54 0.9 1.7 0.00 0.00 0.00 93 1016.0
20260507100554 56 31 0.9 1.7 0.00 0.00 0.00 92 1016.0
20260507100054 56 35 0.9 0.9 0.00 0.00 0.00 92 1015.9
20260507095554 56 2 0.0 0.9 0.00 0.00 0.00 93 1015.9
20260507095054 56 21 0.0 0.0 0.00 0.00 0.00 93 1016.0
20260507094554 56 52 0.0 0.9 0.00 0.00 0.00 93 1016.0
20260507094054 56 28 0.0 0.9 0.00 0.00 0.00 92 1016.0
20260507093554 56 55 1.7 2.6 0.00 0.00 0.00 93 1016.0
20260507093054 56 30 0.0 0.9 0.00 0.00 0.00 93 1016.1
20260507092554 56 22 0.0 0.9 0.00 0.00 0.00 93 1016.1
20260507092055 56 22 0.0 0.9 0.00 0.00 0.00 93 1016.2
20260507091554 56 4 0.0 0.9 0.00 0.00 0.00 93 1016.2
20260507091055 56 17 0.9 1.7 0.00 0.00 0.00 93 1016.3
20260507090554 56 0 0.0 0.0 0.00 0.00 0.00 93 1016.3
20260507090058 56 36 0.0 0.9 0.00 0.00 0.00 94 1016.3
20260507085555 56 28 0.0 1.7 0.00 0.00 0.00 94 1016.4
20260507085054 56 34 0.0 0.0 0.00 0.00 0.00 94 1016.4
20260507084556 56 40 0.0 0.9 0.00 0.00 0.00 94 1016.5
20260507084054 56 39 0.9 0.9 0.00 0.00 0.00 94 1016.6
20260507083554 56 44 0.0 0.0 0.00 0.00 0.00 93 1016.7
20260507083054 57 0 0.0 0.0 0.00 0.00 0.00 94 1016.7
20260507082555 56 0 0.0 0.0 0.00 0.00 0.00 94 1016.7
20260507082054 56 100 0.0 0.9 0.00 0.00 0.00 94 1016.7
20260507081554 56 0 0.0 0.0 0.00 0.00 0.00 94 1016.7
20260507081054 56 104 0.0 0.9 0.00 0.00 0.00 95 1016.8
20260507080554 56 0 0.0 0.0 0.00 0.00 0.00 94 1016.8
20260507080054 56 0 0.0 0.0 0.00 0.00 0.00 93 1016.8
20260507075554 57 89 0.0 1.7 0.00 0.00 0.00 93 1016.9
20260507075054 57 0 0.0 0.9 0.00 0.00 0.00 93 1016.9
20260507074555 57 46 0.0 0.9 0.00 0.00 0.00 93 1017.0
20260507074054 57 355 0.9 1.7 0.00 0.00 0.00 94 1016.9
20260507073555 57 15 0.0 0.9 0.00 0.00 0.00 94 1016.9
20260507073054 57 75 0.9 1.7 0.00 0.00 0.00 94 1016.9
20260507072554 57 36 0.0 0.9 0.00 0.00 0.00 94 1016.8
20260507072055 57 0 0.0 0.0 0.00 0.00 0.00 93 1016.8
20260507071555 57 0 0.0 0.0 0.00 0.00 0.00 93 1016.8
20260507071054 57 19 0.0 0.9 0.00 0.00 0.00 93 1016.9
20260507070554 57 0 0.0 0.0 0.00 0.00 0.00 93 1016.9
20260507070055 58 0 0.0 0.0 0.00 0.00 0.00 93 1017.0
20260507065555 58 30 0.0 0.9 0.00 0.00 0.00 92 1017.0
20260507065055 58 0 0.0 0.0 0.00 0.00 0.00 92 1017.0
20260507064559 58 80 0.0 0.9 0.00 0.00 0.00 91 1017.1
20260507064055 58 77 0.0 1.7 0.00 0.00 0.00 92 1017.2
20260507063554 58 0 0.0 0.0 0.00 0.00 0.00 91 1017.1
20260507063055 58 58 0.0 0.9 0.00 0.00 0.00 91 1017.2
20260507062555 58 75 0.0 1.7 0.00 0.00 0.00 92 1017.2
20260507062055 58 29 0.0 0.9 0.00 0.00 0.00 92 1017.2
20260507061556 58 35 0.0 0.9 0.00 0.00 0.00 92 1017.2
20260507061055 58 0 0.0 0.0 0.00 0.00 0.00 91 1017.2
20260507060555 58 0 0.0 0.0 0.00 0.00 0.00 91 1017.2
20260507060054 58 0 0.0 0.0 0.00 0.00 0.00 91 1017.2
20260507055554 58 0 0.0 0.0 0.00 0.00 0.00 91 1017.2
20260507055054 58 0 0.0 0.0 0.00 0.00 0.00 90 1017.0
20260507054555 58 0 0.0 0.0 0.00 0.00 0.00 90 1017.1
20260507054054 59 0 0.0 0.0 0.00 0.00 0.00 89 1017.1
20260507053556 59 38 0.9 0.9 0.00 0.00 0.00 89 1017.1
20260507053054 59 0 0.0 0.0 0.00 0.00 0.00 89 1017.1
20260507052554 59 0 0.0 0.0 0.00 0.00 0.00 89 1017.1
20260507052054 59 119 0.0 0.9 0.00 0.00 0.00 88 1017.1
20260507051555 59 0 0.0 0.0 0.00 0.00 0.00 88 1017.1
20260507051054 59 53 0.0 0.9 0.00 0.00 0.00 87 1017.1
20260507050554 60 28 0.9 0.9 0.00 0.00 0.00 87 1017.1
20260507050054 60 28 0.9 1.7 0.00 0.00 0.00 87 1017.1
20260507045554 60 0 0.0 0.0 0.00 0.00 0.00 87 1017.0
20260507045054 60 16 0.0 0.9 0.00 0.00 0.00 87 1017.0
20260507044554 60 10 0.0 0.9 0.00 0.00 0.00 86 1017.0
20260507044054 60 1 0.0 1.7 0.00 0.00 0.00 86 1017.0
20260507043554 60 15 0.0 1.7 0.00 0.00 0.00 86 1017.0
20260507043054 60 7 0.9 1.7 0.00 0.00 0.00 86 1017.0
20260507042554 60 22 0.0 0.9 0.00 0.00 0.00 86 1016.9
20260507041619 60 354 0.9 1.7 0.00 0.00 0.00 85 1016.9
20260507041055 61 351 0.9 1.7 0.00 0.00 0.00 85 1016.8
20260507040554 61 24 0.0 0.0 0.00 0.00 0.00 84 1016.8
20260507040055 61 345 0.9 1.7 0.00 0.00 0.00 84 1016.8
20260507035554 61 354 0.0 0.9 0.00 0.00 0.00 84 1016.8
20260507035054 61 340 0.9 1.7 0.00 0.00 0.00 83 1016.8
20260507034554 61 335 0.0 1.7 0.00 0.00 0.00 83 1016.7
20260507034054 61 341 0.9 2.6 0.00 0.00 0.00 83 1016.7
20260507033555 61 325 0.9 1.7 0.00 0.00 0.00 82 1016.6
20260507033054 62 330 0.9 1.7 0.00 0.00 0.00 82 1016.6
20260507032555 62 315 0.9 2.6 0.00 0.00 0.00 81 1016.5
20260507032054 62 331 1.7 2.6 0.00 0.00 0.00 81 1016.4
20260507031554 62 335 0.9 2.6 0.00 0.00 0.00 80 1016.4
20260507031055 62 332 0.9 1.7 0.00 0.00 0.00 79 1016.4
20260507030554 62 311 0.9 1.7 0.00 0.00 0.00 79 1016.3
20260507030055 63 326 0.9 1.7 0.00 0.00 0.00 78 1016.3
20260507025554 63 324 0.0 1.7 0.00 0.00 0.00 78 1016.3
20260507025055 63 316 0.9 1.7 0.00 0.00 0.00 76 1016.2
20260507024555 63 325 0.9 1.7 0.00 0.00 0.00 75 1016.2
20260507024054 63 331 0.9 1.7 0.00 0.00 0.00 75 1016.1
20260507023554 64 341 0.9 2.6 0.00 0.00 0.00 74 1016.1
20260507023054 64 315 1.7 2.6 0.00 0.00 0.00 75 1016.1
20260507022554 64 333 0.9 1.7 0.00 0.00 0.00 75 1016.0
20260507022054 65 320 0.9 1.7 0.00 0.00 0.00 74 1016.0
20260507021554 65 324 0.9 2.6 0.00 0.00 0.00 72 1016.0
20260507021054 65 316 1.7 2.6 0.00 0.00 0.00 70 1016.0
20260507020554 65 323 0.9 1.7 0.00 0.00 0.00 70 1016.0
20260507020055 65 316 1.7 2.6 0.00 0.00 0.00 67 1015.9
20260507015556 66 339 0.9 1.7 0.00 0.00 0.00 68 1015.9
20260507015054 66 327 1.7 3.5 0.00 0.00 0.00 69 1015.9
20260507014555 66 328 1.7 2.6 0.00 0.00 0.00 67 1015.8
20260507014054 66 328 1.7 3.5 0.00 0.00 0.00 66 1015.9
20260507013554 66 332 1.7 3.5 0.00 0.00 0.00 66 1015.8
20260507013055 67 324 2.6 4.3 0.00 0.00 0.00 65 1015.9
20260507012554 67 329 2.6 4.3 0.00 0.00 0.00 65 1015.8
20260507012054 67 321 1.7 2.6 0.00 0.00 0.00 65 1015.8
20260507011554 67 316 1.7 3.5 0.00 0.00 0.00 65 1015.8
20260507011055 68 322 1.7 2.6 0.00 0.00 0.00 63 1015.8
20260507010554 67 319 0.9 1.7 0.00 0.00 0.00 63 1015.8
20260507010056 67 325 1.7 5.2 0.00 0.00 0.00 63 1015.7
20260507005554 68 330 3.5 5.2 0.00 0.00 0.00 61 1015.7
20260507005054 68 326 1.7 3.5 0.00 0.00 0.00 61 1015.7
20260507004554 68 328 3.5 7.0 0.00 0.00 0.00 61 1015.7
20260507004054 68 333 2.6 4.3 0.00 0.00 0.00 62 1015.7
20260507003554 68 324 2.6 5.2 0.00 0.00 0.00 62 1015.6
20260507003054 68 316 0.9 3.5 0.00 0.00 0.00 62 1015.6
20260507002555 69 330 2.6 5.2 0.00 0.00 0.00 62 1015.6
20260507002054 69 326 3.5 7.0 0.00 0.00 0.00 61 1015.5
20260507001554 69 322 1.7 2.6 0.00 0.00 0.00 62 1015.5
20260507001054 70 325 2.6 4.3 0.00 0.00 0.00 61 1015.5
20260507000554 70 308 1.7 2.6 0.00 0.00 0.00 61 1015.4
20260507000054 70 305 1.7 3.5 0.00 0.00 0.00 60 1015.5
20260506235554 70 308 1.7 3.5 0.00 0.00 0.00 60 1015.5
20260506235055 70 313 1.7 4.3 0.00 0.00 0.00 60 1015.5
20260506234555 69 322 1.7 4.3 0.00 0.00 0.00 61 1015.5
20260506234054 70 307 3.5 5.2 0.00 0.00 0.00 59 1015.5
20260506233554 70 302 0.9 2.6 0.00 0.00 0.00 60 1015.5
20260506233054 70 330 3.5 4.3 0.00 0.00 0.00 61 1015.5
20260506232554 70 326 2.6 5.2 0.00 0.00 0.00 61 1015.5
20260506232055 70 320 3.5 6.1 0.00 0.00 0.00 62 1015.5
20260506231554 71 320 1.7 2.6 0.00 0.00 0.00 61 1015.6
20260506231054 71 307 1.7 4.3 0.00 0.00 0.00 60 1015.6
20260506230554 71 287 1.7 2.6 0.00 0.00 0.00 60 1015.6
20260506230054 71 274 0.9 2.6 0.00 0.00 0.00 60 1015.6
20260506225554 71 309 1.7 3.5 0.00 0.00 0.00 60 1015.6
20260506225055 71 307 1.7 3.5 0.00 0.00 0.00 60 1015.7
20260506224554 71 296 2.6 5.2 0.00 0.00 0.00 61 1015.7
20260506224055 71 319 2.6 4.3 0.00 0.00 0.00 61 1015.7
20260506223555 71 309 1.7 2.6 0.00 0.00 0.00 60 1015.7
20260506223054 71 316 1.7 3.5 0.00 0.00 0.00 60 1015.8
20260506222554 72 302 1.7 2.6 0.00 0.00 0.00 59 1015.8
20260506222054 72 216 0.9 2.6 0.00 0.00 0.00 59 1015.8
20260506221554 72 300 1.7 3.5 0.00 0.00 0.00 58 1015.9
20260506221054 72 311 1.7 2.6 0.00 0.00 0.00 59 1015.9
20260506220555 72 317 1.7 3.5 0.00 0.00 0.00 57 1016.0
20260506220054 72 318 0.9 1.7 0.00 0.00 0.00 58 1016.0
20260506215554 72 302 0.9 1.7 0.00 0.00 0.00 58 1016.0
20260506215054 73 333 1.7 5.2 0.00 0.00 0.00 57 1016.0
20260506214554 73 303 1.7 6.1 0.00 0.00 0.00 57 1016.0
20260506214054 73 302 1.7 3.5 0.00 0.00 0.00 57 1016.1
20260506213554 72 270 1.7 4.3 0.00 0.00 0.00 57 1016.1
20260506213057 72 316 1.7 3.5 0.00 0.00 0.00 57 1016.2
20260506212554 72 305 1.7 3.5 0.00 0.00 0.00 59 1016.2
20260506212054 72 310 1.7 2.6 0.00 0.00 0.00 58 1016.2
20260506211555 73 328 2.6 4.3 0.00 0.00 0.00 58 1016.2
20260506211055 73 317 3.5 5.2 0.00 0.00 0.00 57 1016.2
20260506210555 73 299 0.9 1.7 0.00 0.00 0.00 57 1016.3
20260506210055 73 316 0.9 2.6 0.00 0.00 0.00 57 1016.3
20260506205554 73 301 0.9 2.6 0.00 0.00 0.00 58 1016.3
20260506205054 72 190 0.9 2.6 0.00 0.00 0.00 58 1016.4
20260506204554 72 328 0.9 2.6 0.00 0.00 0.00 58 1016.3
20260506204054 72 299 0.9 2.6 0.00 0.00 0.00 57 1016.4
20260506203554 72 315 1.7 4.3 0.00 0.00 0.00 58 1016.3
20260506203054 73 337 3.5 7.0 0.00 0.00 0.00 58 1016.3
20260506202555 73 313 0.9 2.6 0.00 0.00 0.00 56 1016.4
20260506202055 74 314 0.9 2.6 0.00 0.00 0.00 56 1016.5
20260506201556 74 225 2.6 5.2 0.00 0.00 0.00 55 1016.4
20260506201057 75 300 1.7 3.5 0.00 0.00 0.00 55 1016.4
20260506200555 75 226 0.9 2.6 0.00 0.00 0.00 55 1016.5
20260506200054 75 288 1.7 5.2 0.00 0.00 0.00 53 1016.5
20260506195554 74 128 0.9 1.7 0.00 0.00 0.00 54 1016.5
20260506195054 74 317 0.9 2.6 0.00 0.00 0.00 55 1016.6
20260506194554 74 191 1.7 4.3 0.00 0.00 0.00 54 1016.6
20260506194054 74 327 1.7 3.5 0.00 0.00 0.00 54 1016.7
20260506193554 75 307 1.7 2.6 0.00 0.00 0.00 53 1016.7
20260506193054 74 214 0.9 3.5 0.00 0.00 0.00 54 1016.8
20260506192554 75 304 1.7 3.5 0.00 0.00 0.00 53 1016.8
20260506192054 74 184 0.9 2.6 0.00 0.00 0.00 54 1016.8
20260506191555 74 201 0.9 1.7 0.00 0.00 0.00 53 1016.9
20260506191055 74 308 1.7 5.2 0.00 0.00 0.00 53 1016.9
20260506190125 73 319 1.7 2.6 0.00 0.00 0.00 53 1017.0
20260506185556 73 308 1.7 2.6 0.00 0.00 0.00 54 1017.1
20260506185055 73 350 3.5 6.1 0.00 0.00 0.00 54 1017.0
20260506184555 73 192 2.6 5.2 0.00 0.00 0.00 55 1017.1
20260506184054 72 17 0.9 2.6 0.00 0.00 0.00 57 1017.2
20260506183555 72 332 1.7 2.6 0.00 0.00 0.00 55 1017.3
20260506183054 71 90 0.9 2.6 0.00 0.00 0.00 55 1017.4
20260506182554 71 327 2.6 3.5 0.00 0.00 0.00 54 1017.4
20260506182054 71 347 4.3 7.0 0.00 0.00 0.00 53 1017.4
20260506181555 70 311 0.9 2.6 0.00 0.00 0.00 55 1017.4
20260506181054 70 327 1.7 3.5 0.00 0.00 0.00 55 1017.5
20260506180555 70 345 2.6 5.2 0.00 0.00 0.00 55 1017.6
20260506180054 70 333 1.7 5.2 0.00 0.00 0.00 56 1017.6
20260506175554 70 327 1.7 4.3 0.00 0.00 0.00 56 1017.7
20260506175054 69 7 2.6 4.3 0.00 0.00 0.00 57 1017.7
20260506174554 69 350 2.6 5.2 0.00 0.00 0.00 57 1017.8
20260506174054 69 315 0.9 2.6 0.00 0.00 0.00 58 1017.8
20260506173555 69 318 1.7 3.5 0.00 0.00 0.00 57 1017.8
20260506173055 68 314 1.7 3.5 0.00 0.00 0.00 57 1017.9
20260506172555 68 352 3.5 5.2 0.00 0.00 0.00 59 1017.9
20260506172055 69 326 4.3 7.8 0.00 0.00 0.00 58 1018.0
20260506171555 69 353 0.9 1.7 0.00 0.00 0.00 57 1018.1
20260506171058 69 309 1.7 3.5 0.00 0.00 0.00 57 1018.0
20260506170555 68 353 1.7 3.5 0.00 0.00 0.00 59 1018.0
20260506170054 67 143 0.9 1.7 0.00 0.00 0.00 60 1018.0
20260506165556 67 334 1.7 3.5 0.00 0.00 0.00 62 1018.0
20260506165054 67 327 1.7 4.3 0.00 0.00 0.00 61 1018.0
20260506164557 66 329 0.9 2.6 0.00 0.00 0.00 63 1017.9
20260506164054 66 4 3.5 6.1 0.00 0.00 0.00 62 1017.9
20260506163555 66 353 3.5 4.3 0.00 0.00 0.00 63 1018.0
20260506163054 66 352 1.7 3.5 0.00 0.00 0.00 62 1018.1
20260506162555 66 0 3.5 4.3 0.00 0.00 0.00 64 1018.1
20260506162055 65 345 2.6 3.5 0.00 0.00 0.00 65 1018.1
20260506161554 65 303 0.0 0.9 0.00 0.00 0.00 66 1018.1
20260506161055 66 91 2.6 5.2 0.00 0.00 0.00 64 1018.1
20260506160555 65 92 0.9 2.6 0.00 0.00 0.00 65 1018.1
20260506160055 64 160 0.9 2.6 0.00 0.00 0.00 67 1018.1
20260506155554 64 97 2.6 3.5 0.00 0.00 0.00 66 1018.1
20260506155055 64 117 1.7 4.3 0.00 0.00 0.00 67 1018.1
20260506154555 63 61 1.7 3.5 0.00 0.00 0.00 68 1018.0
20260506154054 63 44 2.6 5.2 0.00 0.00 0.00 69 1018.1
20260506153554 63 359 2.6 4.3 0.00 0.00 0.00 68 1018.1
20260506153054 63 37 2.6 3.5 0.00 0.00 0.00 68 1018.1
20260506152555 62 48 2.6 3.5 0.00 0.00 0.00 69 1018.1
20260506152055 62 36 1.7 3.5 0.00 0.00 0.00 70 1018.2
20260506151126 61 35 1.7 3.5 0.00 0.00 0.00 72 1018.2
20260506150555 61 2 2.6 3.5 0.00 0.00 0.00 72 1018.2